세미나안내

[2016 10 05] 정기세미나 3rd

Noble Metal Nanocrystals with Unprecedented Morphologies

MSE Graduate Students and Researchers

관리자 | 2016.10.04 09:04 | 조회 667


Reception: MSE Graduate Students and Researchers

Reference: MSE Professors

Subject: The 3rd Seminar - Fall Semester, 2016

 

 Date: 2016. 10. 05 , 17:00 ~ 18:15

 Place: Science Building, Room.202 Multimedia Room

 Title: Noble Metal Nanocrystals with Unprecedented Morphologies

 Speaker: Prof. Sang Woo Han(KAIST)

Host of a Seminar: Prof. Moon-Ho Jo

 

Speaker Language: ENGLISH

 

Abstract:

 

The morphology of metal nanocrystals explicitly determines their plasmonic, electronic, and catalytic characteristics. In particular, the catalytic activity and selectivity of nanocrystals can be tuned by controlling their shape, as the exposed surfaces of nanocrystals have distinct crystallographic planes that can determine their overall catalytic properties. However, the control of the size, shape, and composition of nanocrystals has been limited due to the complex kinetics in the reduction of metal precursors and to the difficulty in finding suitable stabilizing agents. Therefore, the development of an efficient synthesis route for the preparation of nanocrystals with a specific morphology is still a radical issue to study their properties and applications. Here, facile wet-chemical synthetic processes of noble metal nanocrystals with unprecedented morphologies and their applications in catalysis are reported.

 

 

Department of Materials Science and Engineering




187개(1/10페이지)
세미나안내
번호 제목 글쓴이 조회 날짜
187 [2018 02 21] 신소재공학과 특별세미나 첨부파일 관리자 43 2018.02.19 11:15
186 [2018 02 02] 특별세미나 _Ph.D. Jang-Ung Park 첨부파일 관리자 193 2018.01.29 09:10
185 [2018 01 24] 특별세미나 _DR. Sang Soo Han (KI 첨부파일 관리자 175 2018.01.22 15:05
184 [2018 01 09] 특별세미나 _Ph.D. Jangyup Son (U 첨부파일 관리자 257 2018.01.09 09:25
183 [2017 12 28] 특별세미나 _Ph.D. Ju Hun Lee (UC 첨부파일 관리자 260 2017.12.26 10:44
182 [2017 12 06] 정기세미나 11th 첨부파일 관리자 297 2017.12.04 09:16
181 [2017 11 29] 정기세미나 10th 첨부파일 관리자 336 2017.11.20 09:05
180 [2017 11 21] 특별세미나 _Prof. Sung Hoon Kang 첨부파일 관리자 481 2017.11.20 09:06
179 [2017 11 22] 정기세미나 9th 첨부파일 관리자 244 2017.11.20 09:05
178 [2017 11 15] 정기세미나 8th 첨부파일 관리자 240 2017.11.07 08:51
177 [2017 11 08] 정기세미나 7th 첨부파일 관리자 218 2017.11.07 08:51
176 [2017 11 01] 정기세미나 6th 첨부파일 관리자 261 2017.10.30 09:36
175 [2017 10 18] 정기세미나 5th 첨부파일 관리자 480 2017.09.25 09:23
174 [2017 10 11] 정기세미나 4th 첨부파일 관리자 397 2017.09.25 09:23
173 [2017 09 27] 정기세미나 3rd 첨부파일 관리자 348 2017.09.25 09:23
172 [2017 09 20] 정기세미나 2nd 첨부파일 관리자 350 2017.09.18 09:17
171 [2017 09 13] 정기세미나 1st 첨부파일 관리자 352 2017.09.11 09:43
170 [2017 09 06] 신소재공학과 특별세미나 첨부파일 관리자 355 2017.09.06 09:15
169 [2017 08 30] 특별세미나 _Ph.D Byeongdu Lee (A 첨부파일 관리자 1178 2017.08.21 11:49
168 [2017 08 23] 특별세미나 _Prof. Hong Li (Insti 첨부파일 관리자 513 2017.08.21 11:49